Regional Weather Roundup
Issued by NWS Sterling, VA

Home | Current Version | Previous Version | Graphics & Text | Print | Product List | Glossary On
Versions: 1 2 3 4 5 6 7 8 9 10 11 12 13 14 15 16 17 18 19 20 21 22 23 24 25 26 27 28 29 30 31 32 33 34 35 36 37 38 39 40 41 42 43 44 45 46 47 48 49 50
122
ASUS41 KLWX 282010
RWRLWX

REGIONAL WEATHER ROUNDUP
NATIONAL WEATHER SERVICE BALTIMORE MD/WASHINGTON DC
400 PM EDT THU APR 28 2016

Note: "FAIR" indicates few or no clouds below 12,000 feet
with no significant weather and/or obstructions to visibility.
 TC=TEMPERATURE CELSIUS

 * =Non NWS site. Station does not report precipitation (e.g. rain,
    snow, etc.), thunder, or fog.

DCZ001-MDZ009-015-VAZ040>042-051-053>054-282100-
WASHINGTON METRO

CITY           SKY/WX    TMP DP  RH WIND       PRES   REMARKS
WASHINGTON NAT DRIZZLE   55  53  93 NE8       29.97S FOG
DULLES         DRIZZLE   52  50  93 NE5       29.97S FOG
ANDREWS AFB    LGT RAIN  54  52  94 NE12      29.95F FOG
FT BELVOIR     CLOUDY    54  52  92 E2        29.97R FOG
QUANTICO       CLOUDY    56  52  86 E9        29.96F
LEESBURG*      FOG       52  52 100 E5        29.98S VSB 1
MANASSAS*      CLOUDY    54  54 100 E5        29.97F
GAITHERSBURG*  CLOUDY    48  45  87 NE6       30.02S

$$

MDZ006>007-011-014-282100-
BALTIMORE METRO

CITY           SKY/WX    TMP DP  RH WIND       PRES   REMARKS
BWI AIRPORT    DRIZZLE   49  44  83 E15       29.99S
MD SCIENCE CTR   N/A     51  40  65 MISG      30.01S
MARTIN STATE   CLOUDY    52  43  71 E10       30.02F
ANNAPOLIS        N/A     50  47  89 E14       29.98F FOG
FORT MEADE*    CLOUDY    48  46  93 NE7       30.01F

$$

MDZ012-015-019>023-282100-
MARYLAND EASTERN SHORE

CITY           SKY/WX    TMP DP  RH WIND       PRES   REMARKS
OCEAN CITY     CLOUDY    50  49  96 NE12      29.97F FOG
SALISBURY      CLOUDY    50  48  93 E9        29.96F FOG
CAMBRIDGE*     CLOUDY    46  46 100 NE7       29.97S
EASTON*        CLOUDY   N/A N/A N/A E8        30.01F HAZE

$$

MDZ017>025-282100-
SOUTHERN MARYLAND

CITY           SKY/WX    TMP DP  RH WIND       PRES   REMARKS
PATUXENT RIVER DRIZZLE   53  51  93 E10       29.96S FOG
ST INIGOES     CLOUDY    54  52  93 NE5       29.95S FOG
LEONARDTOWN*   CLOUDY    52  50  93 E6        29.97F

$$

MDZ003>005-282100-
NORTH CENTRAL MARYLAND

CITY           SKY/WX    TMP DP  RH WIND       PRES   REMARKS
FREDERICK*     CLOUDY    46  46 100 N9        30.02S FOG
HAGERSTOWN APT CLOUDY    48  42  80 NE10      29.98F
WESTMINSTER*   DRIZZLE   46  45  93 E6        29.99F

$$

MDZ501>502-282100-
WESTERN MARYLAND

CITY           SKY/WX    TMP DP  RH WIND       PRES   REMARKS
OAKLAND*       FOG       46  46 100 SE10G17   29.90F VSB<1/4
CUMBERLAND*    CLOUDY    52  50  93 E7        29.99F

$$

VAZ025>031-282100-
SHENANDOAH VALLEY

CITY           SKY/WX    TMP DP  RH WIND       PRES   REMARKS
WINCHESTER*    CLOUDY    52  50  93 NE3       29.96S FOG
FRONT ROYAL*   CLOUDY    54  52  94 E9        29.92S
LURAY*         LGT RAIN  55  55 100 N6        29.91F
NEW MARKET*    CLOUDY    55  54  97 N8        29.92S
STAUNTON*      PTSUNNY   60  59  99 W3        29.91F
WAYNESBORO*    CLOUDY    57  55  94 MISG      29.91S

$$

WVZ021-048>050-054>055-282100-
EASTERN WEST VIRGINIA PANHANDLE

CITY           SKY/WX    TMP DP  RH WIND       PRES   REMARKS
MARTINSBURG    CLOUDY    50  44  80 NE9       29.96F
PETERSBURG*    CLOUDY    57  54  89 N7        29.93S

$$

VAZ036>039-050-282100-
CENTRAL FOOTHILLS

CITY           SKY/WX    TMP DP  RH WIND       PRES   REMARKS
CHARLOTTESVILL CLOUDY    58  54  86 NE3       29.93R THUNDER
CULPEPER*      LGT RAIN  55  54  94 NE3       29.96S
ORANGE*        CLOUDY    57  55  94 NE3       29.96R
GORDONSVILLE*  CLOUDY    57  56  96 NE3       29.93R
WARRENTON*     CLOUDY    55  49  81 E3        29.96R

$$

VAZ055>057-282100-
NORTH AND CENTRAL PIEDMONT

CITY           SKY/WX    TMP DP  RH WIND       PRES   REMARKS
FREDERICKSBRG* CLOUDY    55  55 100 E6        29.94F
STAFFORD*      CLOUDY    55  52  92 E7        29.98F FOG

$$

NCZ024-NYZ072-PAZ021-071-VAZ022-071-282100-
OTHER REGIONAL OBSERVATIONS

CITY           SKY/WX    TMP DP  RH WIND       PRES   REMARKS
NEW YORK CITY  PTSUNNY   55  31  39 VRB6      30.05F
PHILADELPHIA   CLOUDY    49  39  68 E6        30.04S
PITTSBURGH     DRIZZLE   51  48  89 NE6       29.87F FOG
ROANOKE        FAIR      75  64  68 E12G23    29.84F
RICHMOND       CLOUDY    59  57  93 E7        29.92F FOG
RALEIGH        MOSUNNY   83  66  56 SW12G17   29.84F

$$

ANZ530>537-282100-
MARINE OBSERVATIONS

STATION/POSITION TIME  TEMP    WIND        PRES
                       AIR SEA DIR/SP/G
                 (UTC) (F)     (DEG/KT/KT) (MB)
THOMAS PT LIGHT  2000   49 58   60/ 14/ 16 1016.5S
BALT KEY BRIDGE  1900   50      80/ 17/ 20 1015.7F
COVE POINT       1900   52     110/ 10/ 13 1015.3F
LEWISETTA        1900   55 61  110/ 12/ 14 1013.9F
SOLOMONS ISLAND  1900   54 61   90/ 11/ 12   N/A

$$





USA.gov is the U.S. government's official web portal to all federal, state and local government web resources and services.